Notices

What's New in latest Release from April 7th, 2021:

- Updated Glossary, including Speed of Maximum Gust, and Total Hourly Precipitation

- Updated national and regional climate services offices contacts and prices information

- Addition of station inventory lists for 1981-2010, 1971-2000, and 1961-1990 Normals.

If you haven't already, please take our survey and provide feedback about our website: https://eccc.sondage-survey.ca/f/LanguageSelection.aspx?s=442ca660-fcf1-47c0-95a9-59707d6fd709

Hourly Data Report for October 15, 2019

QUALICUM BEACH AIRPORT
BRITISH COLUMBIA
Current Station Operator: ECCC - MSC

49°20'14.000" N
124°23'38.000" W
58.20 m
1026562
71766
VOQ

Download Data

Hourly Data (October 2019)
Hourly Data Report for October 15, 2019
TIME
LST
Temp Definition
°C
Dew Point Definition
°C
Rel Hum Definition
%
Precip. Amount Definition
mm

Wind Dir Definition
10's deg

Wind Spd Definition
km/h
Visibility Definition
km
Stn Press Definition
kPa
Hmdx Definition


Wind Chill Definition


Weather Definition


00:00 8.6 7.8 95 0.0 11 3   100.91     LegendNANA
01:00 9.5 7.7 88 0.0 26 2   100.89     LegendNANA
02:00 9.2 7.4 89 0.0 17 5   100.84     LegendNANA
03:00 9.2 7.5 89 0.0 29 3   100.77     LegendNANA
04:00 10.2 7.3 82 0.0 12 8   100.65     LegendNANA
05:00 10.3 6.7 78 0.0 13 8   100.60     LegendNANA
06:00 10.3 6.5 77 0.0 13 6   100.59     LegendNANA
07:00 10.8 6.4 74 0.0 15 12   100.57     LegendNANA
08:00 11.1 6.4 73 0.0 12 10   100.57     LegendNANA
09:00 11.7 6.2 69 0.0 18 6   100.58     LegendNANA
10:00 11.5 6.8 73 0.0 13 7   100.63     LegendNANA
11:00 11.4 6.5 72 0.1 14 21   100.63     LegendNANA
12:00 11.0 7.0 77 0.1 13 19   100.62     LegendNANA
13:00 11.1 6.8 75 0.0 12 18   100.55     LegendNANA
14:00 10.8 7.7 81 0.0 12 23   100.49     LegendNANA
15:00 10.5 8.0 85 0.0 12 24   100.44     LegendNANA
16:00 9.9 8.4 90 0.3 12 22   100.42     LegendNANA
17:00 9.8 7.9 88 0.3 12 21   100.39     LegendNANA
18:00 10.1 8.2 89 0.5 12 21   100.36     LegendNANA
19:00 10.3 8.3 88 0.0 12 21   100.35     LegendNANA
20:00 10.4 8.5 88 0.0 12 22   100.35     LegendNANA
21:00 10.4 8.6 89 0.0 13 26   100.30     LegendNANA
22:00 10.4 8.7 90 0.0 13 22   100.24     LegendNANA
23:00 10.1 8.8 92 0.3 12 24   100.16     LegendNANA

Notes on Data Quality.

Legend

  • E = Estimated
  • M = Missing
  • NA = Not Available*
  • [empty] = Indicates an unobserved value
Date modified: